DL3APY-3 Weather Reports


time (UTC)temp
C
wind
direction
speed
KPH
gust
KPH
rain 1hr
cm
rain 24hr
cm
rain mn
cm
humidity
%
barometer
mb
20260507094008 7 90 1.6 0.0 0.03 0.00 0.00 10 1012.0
20260507093900 7 45 1.6 0.0 0.03 0.00 0.00 10 1012.0
20260507093642 7 45 1.6 0.0 0.03 0.00 0.00 10 1011.9
20260507093425 7 0 3.2 0.0 0.03 0.00 0.00 10 1011.9
20260507093316 7 90 4.8 0.0 0.03 0.00 0.00 10 1011.8
20260507093207 7 45 4.8 0.0 0.03 0.00 0.00 10 1011.8
20260507093059 7 45 3.2 0.0 0.03 0.00 0.00 10 1011.8
20260507092950 7 90 3.2 0.0 0.03 0.00 0.00 10 1011.8
20260507092841 7 0 1.6 0.0 0.00 0.00 0.00 10 1011.8
20260507092732 7 135 1.6 0.0 0.00 0.00 0.00 10 1011.8
20260507092624 7 90 1.6 0.0 0.00 0.00 0.00 10 1011.7
20260507092515 7 90 1.6 0.0 0.00 0.00 0.00 10 1011.7
20260507092406 7 45 3.2 0.0 0.00 0.00 0.00 10 1011.7
20260507092258 7 90 1.6 0.0 0.00 0.00 0.00 10 1011.7
20260507092149 7 90 1.6 0.0 0.00 0.00 0.00 10 1011.7
20260507091931 7 45 1.6 0.0 0.00 0.00 0.00 10 1011.7
20260507091823 7 45 1.6 0.0 0.00 0.00 0.00 10 1011.6
20260507091714 7 0 3.2 0.0 0.05 0.00 0.00 10 1011.6
20260507091605 7 45 1.6 0.0 0.05 0.00 0.00 10 1011.6
20260507091456 7 135 3.2 0.0 0.05 0.00 0.00 10 1011.5
20260507091348 7 45 3.2 0.0 0.05 0.00 0.00 10 1011.5
20260507091239 7 45 3.2 0.0 0.05 0.00 0.00 10 1011.4
20260507091130 7 45 3.2 0.0 0.05 0.00 0.00 10 1011.4
20260507091021 7 0 3.2 0.0 0.05 0.00 0.00 10 1011.4
20260507090913 7 135 3.2 0.0 0.05 0.00 0.00 10 1011.3
20260507090655 7 45 3.2 0.0 0.05 0.00 0.00 10 1011.3
20260507090438 7 45 3.2 0.0 0.05 0.00 0.00 10 1011.3
20260507090329 7 45 4.8 0.0 0.05 0.00 0.00 10 1011.2
20260507090220 7 90 1.6 0.0 0.05 0.00 0.00 10 1011.2
20260507090111 7 45 3.2 0.0 0.05 0.00 0.00 10 1011.2
20260507090002 7 0 1.6 0.0 0.05 0.00 0.00 10 1011.2
20260507085854 7 45 1.6 0.0 0.05 0.00 0.00 10 1011.2
20260507085636 7 135 4.8 0.0 0.03 0.00 0.00 10 1011.1
20260507085527 7 45 3.2 0.0 0.03 0.00 0.00 10 1011.1
20260507085419 7 45 1.6 0.0 0.03 0.00 0.00 10 1011.0
20260507085310 7 0 3.2 0.0 0.03 0.00 0.00 10 1010.9
20260507084944 7 90 1.6 0.0 0.03 0.00 0.00 10 1010.9
20260507084617 7 45 3.2 0.0 0.03 0.00 0.00 10 1010.7
20260507084509 7 45 3.2 0.0 0.03 0.00 0.00 10 1010.8
20260507084400 7 135 1.6 0.0 0.03 0.00 0.00 10 1010.7
20260507084142 7 90 3.2 0.0 0.03 0.00 0.00 10 1010.7
20260507084034 7 45 3.2 0.0 0.03 0.00 0.00 10 1010.7
20260507083925 7 45 3.2 0.0 0.03 0.00 0.00 10 1010.8
20260507083816 7 45 4.8 0.0 0.03 0.00 0.00 10 1010.7
20260507083450 7 0 6.4 0.0 0.03 0.00 0.00 10 1010.6
20260507083341 7 45 1.6 0.0 0.03 0.00 0.00 10 1010.5
20260507083232 7 45 1.6 0.0 0.03 0.00 0.00 10 1010.4
20260507083124 7 45 3.2 0.0 0.03 0.00 0.00 10 1010.4
20260507083015 7 45 1.6 0.0 0.03 0.00 0.00 10 1010.4
20260507082757 7 90 3.2 0.0 0.03 0.00 0.00 10 1010.3
20260507082648 7 45 1.6 0.0 0.00 0.00 0.00 10 1010.3
20260507082540 7 45 1.6 0.0 0.00 0.00 0.00 10 1010.4
20260507082322 7 90 1.6 0.0 0.00 0.00 0.00 10 1010.3
20260507082213 7 45 1.6 0.0 0.00 0.00 0.00 10 1010.3
20260507081956 7 90 3.2 0.0 0.00 0.00 0.00 10 1010.3
20260507081847 7 45 1.6 0.0 0.00 0.00 0.00 10 1010.3
20260507081739 7 0 3.2 0.0 0.00 0.00 0.00 10 1010.3
20260507081630 7 0 4.8 0.0 0.00 0.00 0.00 10 1010.3
20260507081412 7 45 1.6 0.0 0.00 0.00 0.00 10 1010.3
20260507081303 7 0 4.8 0.0 0.00 0.00 0.00 10 1010.3
20260507081154 7 45 3.2 0.0 0.00 0.00 0.00 10 1010.3
20260507081045 7 45 1.6 0.0 0.00 0.00 0.00 10 1010.3
20260507080936 7 45 1.6 0.0 0.00 0.00 0.00 10 1010.3
20260507080827 7 45 4.8 0.0 0.00 0.00 0.00 10 1010.1
20260507080719 7 45 1.6 0.0 0.05 0.00 0.00 10 1010.0
20260507080243 7 45 1.6 0.0 0.05 0.00 0.00 10 1009.9
20260507080135 7 45 3.2 0.0 0.05 0.00 0.00 10 1009.9
20260507080026 7 0 3.2 0.0 0.05 0.00 0.00 10 1009.9
20260507075917 7 90 1.6 0.0 0.05 0.00 0.00 10 1009.9
20260507075809 7 45 1.6 0.0 0.05 0.00 0.00 10 1009.8
20260507075700 8 45 1.6 0.0 0.03 0.00 0.00 10 1009.8
20260507075551 7 90 1.6 0.0 0.03 0.00 0.00 10 1009.9
20260507075442 8 45 1.6 0.0 0.03 0.00 0.00 10 1009.8
20260507075333 8 270 3.2 0.0 0.03 0.00 0.00 10 1009.7
20260507075224 8 45 1.6 0.0 0.03 0.00 0.00 10 1009.7
20260507075007 8 0 1.6 0.0 0.03 0.00 0.00 10 1009.6
20260507074314 8 90 3.2 0.0 0.03 0.00 0.00 10 1009.4
20260507074057 8 0 1.6 0.0 0.03 0.00 0.00 10 1009.3
20260507073730 8 45 1.6 0.0 0.03 0.00 0.00 10 1009.2
20260507073255 8 45 1.6 0.0 0.03 0.00 0.00 10 1009.2
20260507072820 8 45 1.6 0.0 0.03 0.00 0.00 10 1009.3
20260507072711 8 135 1.6 0.0 0.03 0.00 0.00 10 1009.4
20260507072602 8 90 1.6 0.0 0.03 0.00 0.00 10 1009.4
20260507072454 8 90 1.6 0.0 0.00 0.00 0.00 10 1009.3
20260507072236 8 45 1.6 0.0 0.00 0.00 0.00 10 1009.3
20260507072127 8 90 3.2 0.0 0.00 0.00 0.00 10 1009.2
20260507071910 8 90 1.6 0.0 0.00 0.00 0.00 10 1009.1
20260507071652 8 45 3.2 0.0 0.00 0.00 0.00 10 1009.0
20260507071434 8 45 1.6 0.0 0.00 0.00 0.00 10 1009.0
20260507071326 8 180 1.6 0.0 0.00 0.00 0.00 10 1009.0
20260507071217 8 90 3.2 0.0 0.00 0.00 0.00 10 1009.0
20260507071108 8 0 3.2 0.0 0.00 0.00 0.00 10 1009.0
20260507071000 8 90 1.6 0.0 0.00 0.00 0.00 10 1009.0
20260507070851 8 90 1.6 0.0 0.00 0.00 0.00 10 1009.1
20260507070742 8 90 3.2 0.0 0.00 0.00 0.00 10 1009.1
20260507070524 8 45 1.6 0.0 0.00 0.00 0.00 10 1009.1
20260507070415 8 90 1.6 0.0 0.00 0.00 0.00 10 1009.1
20260507070307 8 90 1.6 0.0 0.00 0.00 0.00 10 1009.0
20260507070049 8 45 1.6 0.0 0.00 0.00 0.00 10 1008.9
20260507065940 8 135 1.6 0.0 0.00 0.00 0.00 10 1008.9
20260507065832 8 45 1.6 0.0 0.00 0.00 0.00 10 1008.8
20260507065723 8 45 1.6 0.0 0.08 0.00 0.00 10 1008.8
20260507065614 8 135 1.6 0.0 0.08 0.00 0.00 10 1008.7
20260507065505 8 45 1.6 0.0 0.08 0.00 0.00 10 1008.7
20260507065356 8 90 3.2 0.0 0.05 0.00 0.00 10 1008.6
20260507065248 8 90 1.6 0.0 0.05 0.00 0.00 10 1008.6
20260507065030 8 45 3.2 0.0 0.05 0.00 0.00 10 1008.4
20260507064921 8 45 1.6 0.0 0.05 0.00 0.00 10 1008.4
20260507064812 8 45 1.6 0.0 0.05 0.00 0.00 10 1008.3
20260507064704 8 90 1.6 0.0 0.05 0.00 0.00 10 1008.3
20260507064555 8 90 1.6 0.0 0.05 0.00 0.00 10 1008.3
20260507064337 8 0 3.2 0.0 0.05 0.00 0.00 10 1008.5
20260507064228 8 0 3.2 0.0 0.05 0.00 0.00 10 1008.3
20260507064120 8 90 1.6 0.0 0.05 0.00 0.00 10 1008.3
20260507064011 8 90 3.2 0.0 0.05 0.00 0.00 10 1008.2
20260507063902 8 45 1.6 0.0 0.05 0.00 0.00 10 1008.1
20260507063753 8 45 1.6 0.0 0.05 0.00 0.00 10 1008.1
20260507063536 8 45 1.6 0.0 0.05 0.00 0.00 10 1008.1
20260507063318 8 0 1.6 0.0 0.05 0.00 0.00 10 1007.9
20260507063210 8 0 1.6 0.0 0.05 0.00 0.00 10 1007.9
20260507063101 8 0 1.6 0.0 0.05 0.00 0.00 10 1007.8
20260507062952 8 90 1.6 0.0 0.05 0.00 0.00 10 1007.9
20260507062843 8 0 3.2 0.0 0.03 0.00 0.00 10 1007.8
20260507062734 8 90 1.6 0.0 0.03 0.00 0.00 10 1007.7
20260507062625 8 45 3.2 0.0 0.03 0.00 0.00 10 1007.7
20260507062408 8 45 6.4 0.0 0.03 0.00 0.00 10 1007.9
20260507062259 8 45 1.6 0.0 0.03 0.00 0.00 10 1007.9
20260507062042 8 0 1.6 0.0 0.03 0.00 0.00 10 1007.5
20260507061933 8 45 1.6 0.0 0.03 0.00 0.00 10 1007.4
20260507061824 8 45 1.6 0.0 0.03 0.00 0.00 10 1007.3
20260507061715 8 135 4.8 0.0 0.03 0.00 0.00 10 1007.3
20260507061607 8 45 3.2 0.0 0.03 0.00 0.00 10 1007.2
20260507061458 8 135 3.2 0.0 0.03 0.00 0.00 10 1007.1
20260507061240 8 45 1.6 0.0 0.03 0.00 0.00 10 1006.9
20260507061131 8 0 1.6 0.0 0.03 0.00 0.00 10 1006.8
20260507060805 8 45 3.2 0.0 0.03 0.00 0.00 10 1006.8
20260507060547 8 45 3.2 0.0 0.03 0.00 0.00 10 1007.5
20260507060329 8 45 1.6 0.0 0.03 0.00 0.00 10 1007.4
20260507060221 8 0 3.2 0.0 0.03 0.00 0.00 10 1007.3
20260507060112 8 45 3.2 0.0 0.03 0.00 0.00 10 1007.4
20260507060003 8 45 1.6 0.0 0.03 0.00 0.00 10 1007.3
20260507055854 8 45 1.6 0.0 0.00 0.00 0.00 10 1007.3
20260507055745 8 45 4.8 0.0 0.00 0.00 0.00 10 1007.2
20260507055637 8 45 3.2 0.0 0.00 0.00 0.00 10 1007.3
20260507055419 8 45 3.2 0.0 0.00 0.00 0.00 10 1007.2
20260507055201 8 45 3.2 0.0 0.00 0.00 0.00 10 1007.1
20260507055053 8 45 4.8 0.0 0.00 0.00 0.00 10 1007.1
20260507054944 8 90 3.2 0.0 0.00 0.00 0.00 10 1007.1
20260507054835 8 45 3.2 0.0 0.00 0.00 0.00 10 1007.1
20260507054726 8 45 1.6 0.0 0.03 0.00 0.00 10 1007.0
20260507054618 8 0 1.6 0.0 0.03 0.00 0.00 10 1007.0
20260507054251 8 45 1.6 0.0 0.03 0.00 0.00 10 1006.9
20260507054143 8 45 3.2 0.0 0.03 0.00 0.00 10 1006.9
20260507054034 8 45 1.6 0.0 0.03 0.00 0.00 10 1006.8
20260507053925 8 0 3.2 0.0 0.03 0.00 0.00 10 1006.8
20260507053816 8 0 6.4 0.0 0.03 0.00 0.00 10 1006.7
20260507053707 8 45 3.2 0.0 0.03 0.00 0.00 10 1006.7
20260507053559 8 45 1.6 0.0 0.03 0.00 0.00 10 1006.7
20260507053341 9 45 1.6 0.0 0.03 0.00 0.00 10 1006.6
20260507053015 9 0 1.6 0.0 0.03 0.00 0.00 10 1006.5
20260507052906 8 45 1.6 0.0 0.03 0.00 0.00 10 1006.6
20260507052757 9 45 1.6 0.0 0.03 0.00 0.00 10 1006.6
20260507052322 9 45 0.0 0.0 0.03 0.00 0.00 10 1006.9
20260507052213 9 45 1.6 0.0 0.03 0.00 0.00 10 1006.8
20260507052105 9 90 1.6 0.0 0.03 0.00 0.00 10 1006.9
20260507051956 8 45 1.6 0.0 0.03 0.00 0.00 10 1006.8
20260507051847 8 0 1.6 0.0 0.03 0.00 0.00 10 1006.8
20260507051630 8 45 1.6 0.0 0.03 0.00 0.00 10 1006.6
20260507051521 8 45 3.2 0.0 0.00 0.00 0.00 10 1006.6
20260507051412 9 45 1.6 0.0 0.00 0.00 0.00 10 1006.6
20260507051303 9 90 1.6 0.0 0.00 0.00 0.00 10 1006.6
20260507050828 9 0 3.2 0.0 0.00 0.00 0.00 10 1006.5
20260507050611 9 45 1.6 0.0 0.00 0.00 0.00 10 1006.5
20260507050502 9 45 1.6 0.0 0.00 0.00 0.00 10 1006.5
20260507050244 9 0 1.6 0.0 0.00 0.00 0.00 10 1006.5
20260507050136 9 90 1.6 0.0 0.00 0.00 0.00 10 1006.6
20260507050027 9 315 1.6 0.0 0.00 0.00 0.00 10 1006.5
20260507045918 9 45 1.6 0.0 0.00 0.00 0.00 10 1006.5
20260507045809 9 45 3.2 0.0 0.00 0.00 0.00 10 1006.5
20260507045701 9 45 1.6 0.0 0.00 0.00 0.00 10 1006.5
20260507045443 9 0 1.6 0.0 0.00 0.00 0.00 10 1006.5
20260507045117 9 0 1.6 0.0 0.00 0.00 0.00 10 1006.5
20260507045008 9 45 1.6 0.0 0.00 0.00 0.00 10 1006.4
20260507044750 9 45 1.6 0.0 0.00 0.00 0.00 10 1006.5
20260507044642 9 45 1.6 0.0 0.00 0.00 0.00 10 1006.5
20260507044533 9 45 3.2 0.0 0.00 0.00 0.00 10 1006.5
20260507044315 9 0 1.6 0.0 0.00 0.00 0.00 10 1006.5
20260507044206 9 45 1.6 0.0 0.00 0.00 0.00 10 1006.5
20260507044057 9 45 3.2 0.0 0.00 0.00 0.00 10 1006.5
20260507043949 9 45 1.6 0.0 0.00 0.00 0.00 10 1006.5
20260507043840 9 45 3.2 0.0 0.00 0.00 0.00 10 1006.4
20260507043731 9 45 1.6 0.0 0.00 0.00 0.00 10 1006.4
20260507043622 9 45 1.6 0.0 0.00 0.00 0.00 10 1006.4
20260507043513 9 0 1.6 0.0 0.00 0.00 0.00 10 1006.4
20260507043405 9 45 1.6 0.0 0.00 0.00 0.00 10 1006.4
20260507043256 9 45 3.2 0.0 0.00 0.00 0.00 10 1006.4
20260507043147 9 45 1.6 0.0 0.00 0.00 0.00 10 1006.4
20260507043038 9 90 3.2 0.0 0.00 0.00 0.00 10 1006.4
20260507042929 9 90 1.6 0.0 0.00 0.00 0.00 10 1006.3
20260507042821 9 45 3.2 0.0 0.00 0.00 0.00 10 1006.3
20260507042712 9 45 3.2 0.0 0.00 0.00 0.00 10 1006.3
20260507042604 9 45 3.2 0.0 0.00 0.00 0.00 10 1006.2
20260507042455 9 45 1.6 0.0 0.00 0.00 0.00 10 1006.1
20260507042346 9 45 3.2 0.0 0.00 0.00 0.00 10 1006.1
20260507042129 9 0 3.2 0.0 0.00 0.00 0.00 10 1006.1
20260507042020 9 45 1.6 0.0 0.00 0.00 0.00 10 1006.0
20260507041803 9 0 1.6 0.0 0.00 0.00 0.00 10 1005.9
20260507041655 9 45 1.6 0.0 0.00 0.00 0.00 10 1005.8
20260507041546 9 45 3.2 0.0 0.00 0.00 0.00 10 1005.8
20260507041329 9 45 1.6 0.0 0.00 0.00 0.00 10 1005.7
20260507041111 9 45 1.6 0.0 0.00 0.00 0.00 10 1005.7
20260507041003 9 45 1.6 0.0 0.00 0.00 0.00 10 1005.7
20260507040054 9 90 1.6 0.0 0.00 0.00 0.00 10 1005.5
20260507035945 9 90 1.6 0.0 0.00 0.00 0.00 10 1005.5
20260507035728 9 135 1.6 0.0 0.00 0.00 0.00 10 1005.4
20260507035620 9 180 0.0 0.0 0.00 0.00 0.00 10 1005.3
20260507033544 9 225 1.6 0.0 0.00 0.00 0.00 10 1005.0
20260507033436 9 180 1.6 0.0 0.00 0.00 0.00 10 1004.9
20260507033327 9 225 1.6 0.0 0.00 0.00 0.00 10 1004.9
20260507033110 9 180 1.6 0.0 0.00 0.00 0.00 10 1004.9
20260507033001 9 225 1.6 0.0 0.00 0.00 0.00 10 1004.9
20260507032744 9 225 1.6 0.0 0.00 0.00 0.00 10 1004.9
20260507032635 9 270 1.6 0.0 0.00 0.00 0.00 10 1004.9
20260507032418 9 270 1.6 0.0 0.00 0.00 0.00 10 1004.9
20260507032310 9 225 1.6 0.0 0.00 0.00 0.00 10 1004.8
20260507032201 9 270 1.6 0.0 0.00 0.00 0.00 10 1004.9
20260507031944 9 1.6 0.0 0.00 0.00 0.00 10 1004.8
20260507031835 9 270 1.6 0.0 0.00 0.00 0.00 10 1004.8
20260507031726 9 225 3.2 0.0 0.00 0.00 0.00 10 1004.9
20260507031509 9 225 3.2 0.0 0.00 0.00 0.00 10 1004.9
20260507031400 9 225 3.2 0.0 0.00 0.00 0.00 10 1004.8
20260507031143 9 225 1.6 0.0 0.00 0.00 0.00 10 1004.7
20260507031034 9 225 3.2 0.0 0.00 0.00 0.00 10 1004.7
20260507030926 9 3.2 0.0 0.00 0.00 0.00 10 1004.7
20260507030817 9 225 1.6 0.0 0.00 0.00 0.00 10 1004.7
20260507030709 9 270 3.2 0.0 0.00 0.00 0.00 10 1004.7
20260507030600 9 270 1.6 0.0 0.00 0.00 0.00 10 1004.7
20260507030451 9 315 1.6 0.0 0.00 0.00 0.00 10 1004.6
20260507030343 9 225 1.6 0.0 0.00 0.00 0.00 10 1004.5
20260507030125 9 225 1.6 0.0 0.00 0.00 0.00 10 1004.5
20260507025908 9 45 1.6 0.0 0.00 0.00 0.00 10 1004.5
20260507025800 9 225 1.6 0.0 0.00 0.00 0.00 10 1004.5
20260507025651 9 270 1.6 0.0 0.00 0.00 0.00 10 1004.5
20260507025542 9 225 1.6 0.0 0.00 0.00 0.00 10 1004.5
20260507025434 9 45 1.6 0.0 0.00 0.00 0.00 10 1004.6
20260507025325 9 225 1.6 0.0 0.00 0.00 0.00 10 1004.6
20260507024633 9 270 1.6 0.0 0.00 0.00 0.00 10 1004.6
20260507024525 9 225 4.8 0.0 0.00 0.00 0.00 10 1004.6
20260507024416 9 270 3.2 0.0 0.00 0.00 0.00 10 1004.6
20260507024307 9 225 1.6 0.0 0.00 0.00 0.00 10 1004.6
20260507024159 9 270 3.2 0.0 0.00 0.00 0.00 10 1004.6
20260507024050 9 270 1.6 0.0 0.00 0.00 0.00 10 1004.6
20260507023942 9 270 1.6 0.0 0.00 0.00 0.00 10 1004.5
20260507023833 9 315 3.2 0.0 0.00 0.00 0.00 10 1004.6
20260507023724 9 225 3.2 0.0 0.00 0.00 0.00 10 1004.5
20260507023616 9 270 1.6 0.0 0.00 0.00 0.00 10 1004.6
20260507023358 10 270 3.2 0.0 0.00 0.00 0.00 10 1004.5
20260507023250 10 270 1.6 0.0 0.00 0.00 0.00 10 1004.6
20260507023141 9 225 3.2 0.0 0.00 0.00 0.00 10 1004.5
20260507023033 9 270 3.2 0.0 0.00 0.00 0.00 10 1004.5
20260507022924 9 225 3.2 0.0 0.00 0.00 0.00 10 1004.5
20260507022815 9 270 1.6 0.0 0.00 0.00 0.00 10 1004.4
20260507022707 10 270 3.2 0.0 0.00 0.00 0.00 10 1004.5
20260507022558 10 270 1.6 0.0 0.00 0.00 0.00 10 1004.4
20260507022449 10 270 1.6 0.0 0.00 0.00 0.00 10 1004.4
20260507022341 10 225 3.2 0.0 0.00 0.00 0.00 10 1004.3
20260507022124 10 270 3.2 0.0 0.00 0.00 0.00 10 1004.1
20260507022015 10 270 3.2 0.0 0.00 0.00 0.00 10 1004.0
20260507021906 10 270 3.2 0.0 0.00 0.00 0.00 10 1004.0
20260507021758 10 270 1.6 0.0 0.08 0.00 0.00 10 1003.9
20260507021649 10 225 3.2 0.0 0.08 0.00 0.00 10 1003.8
20260507021541 10 270 1.6 0.0 0.08 0.00 0.00 10 1004.0
20260507021432 10 270 3.2 0.0 0.08 0.00 0.00 10 1004.1
20260507021323 10 315 3.2 0.0 0.05 0.00 0.00 10 1004.2
20260507021215 10 225 3.2 0.0 0.05 0.00 0.00 10 1004.4
20260507021106 10 225 1.6 0.0 0.05 0.00 0.00 10 1004.5
20260507020957 10 225 3.2 0.0 0.05 0.00 0.00 10 1004.6
20260507020849 10 225 3.2 0.0 0.05 0.00 0.00 10 1004.6
20260507020740 10 180 4.8 0.0 0.05 0.00 0.00 10 1004.6
20260507020631 10 225 3.2 0.0 0.05 0.00 0.00 10 1004.6
20260507020523 10 270 1.6 0.0 0.05 0.00 0.00 10 1004.5
20260507020414 10 315 3.2 0.0 0.05 0.00 0.00 10 1004.6
20260507020305 10 225 1.6 0.0 0.05 0.00 0.00 10 1004.5
20260507020157 10 270 4.8 0.0 0.05 0.00 0.00 10 1004.5
20260507015614 10 180 1.6 0.0 0.05 0.00 0.00 10 1004.3
20260507015505 10 270 1.6 0.0 0.05 0.00 0.00 10 1004.2
20260507015356 10 270 1.6 0.0 0.05 0.00 0.00 10 1004.2
20260507014922 10 270 1.6 0.0 0.05 0.00 0.00 10 1004.4
20260507014813 10 180 3.2 0.0 0.05 0.00 0.00 10 1004.4
20260507014339 10 45 1.6 0.0 0.03 0.00 0.00 10 1004.3
20260507013647 10 180 1.6 0.0 0.00 0.00 0.00 10 1004.0
20260507013538 10 180 1.6 0.0 0.00 0.00 0.00 10 1004.0
20260507013430 11 180 1.6 0.0 0.00 0.00 0.00 10 1003.9
20260507013321 11 180 1.6 0.0 0.00 0.00 0.00 10 1003.8
20260507013213 11 180 1.6 0.0 0.00 0.00 0.00 10 1003.8
20260507013104 11 135 1.6 0.0 0.00 0.00 0.00 10 1003.7
20260507012847 11 135 1.6 0.0 0.00 0.00 0.00 10 1003.6
20260507012306 11 90 1.6 0.0 0.00 0.00 0.00 10 1003.8
20260507012155 11 90 1.6 0.0 0.00 0.00 0.00 10 1003.9
20260507011938 11 45 3.2 0.0 0.00 0.00 0.00 10 1003.8
20260507011829 11 90 1.6 0.0 0.00 0.00 0.00 10 1003.8
20260507011720 11 90 1.6 0.0 0.00 0.00 0.00 10 1003.8
20260507011612 11 90 1.6 0.0 0.00 0.00 0.00 10 1003.8
20260507011503 11 45 1.6 0.0 0.00 0.00 0.00 10 1003.8
20260507011355 11 90 3.2 0.0 0.00 0.00 0.00 10 1003.8
20260507011246 11 90 1.6 0.0 0.00 0.00 0.00 10 1003.7
20260507011137 11 90 3.2 0.0 0.00 0.00 0.00 10 1003.7
20260507011029 11 90 1.6 0.0 0.00 0.00 0.00 10 1003.7
20260507010920 11 90 1.6 0.0 0.00 0.00 0.00 10 1003.7
20260507010812 11 135 1.6 0.0 0.03 0.00 0.00 10 1003.7
20260507010703 11 90 1.6 0.0 0.00 0.00 0.00 10 1003.7
20260507010554 11 90 1.6 0.0 0.00 0.00 0.00 10 1003.6
20260507010338 11 180 1.6 0.0 0.00 0.00 0.00 10 1003.6
20260507010228 11 45 1.6 0.0 0.00 0.00 0.00 10 1003.6
20260507010120 11 315 1.6 0.0 0.00 0.00 0.00 10 1003.6
20260507010011 11 90 4.8 0.0 0.00 0.00 0.00 10 1003.5
20260507005754 11 45 3.2 0.0 0.00 0.00 0.00 10 1003.6
20260507005645 11 45 3.2 0.0 0.00 0.00 0.00 10 1003.4
20260507005537 11 90 3.2 0.0 0.00 0.00 0.00 10 1003.4
20260507005428 11 90 1.6 0.0 0.00 0.00 0.00 10 1003.5
20260507005320 11 90 3.2 0.0 0.00 0.00 0.00 10 1003.4
20260507005211 11 90 1.6 0.0 0.00 0.00 0.00 10 1003.5
20260507005102 11 90 1.6 0.0 0.00 0.00 0.00 10 1003.4
20260507004954 11 45 1.6 0.0 0.00 0.00 0.00 10 1003.3
20260507004845 11 90 3.2 0.0 0.00 0.00 0.00 10 1003.3
20260507004736 11 90 4.8 0.0 0.00 0.00 0.00 10 1003.3
20260507004628 11 90 1.6 0.0 0.00 0.00 0.00 10 1003.2
20260507004411 11 45 1.6 0.0 0.00 0.00 0.00 10 1003.2
20260507004302 11 135 3.2 0.0 0.00 0.00 0.00 10 1003.1
20260507004153 11 90 1.6 0.0 0.00 0.00 0.00 10 1003.1
20260507004044 11 90 1.6 0.0 0.00 0.00 0.00 10 1003.1
20260507003936 11 45 1.6 0.0 0.00 0.00 0.00 10 1003.1
20260507003827 11 90 3.2 0.0 0.00 0.00 0.00 10 1003.1
20260507003719 11 45 4.8 0.0 0.00 0.00 0.00 10 1003.0
20260507003610 11 90 1.6 0.0 0.00 0.00 0.00 10 1002.9
20260507003353 11 45 1.6 0.0 0.00 0.00 0.00 10 1002.8
20260507003244 11 90 4.8 0.0 0.00 0.00 0.00 10 1002.8
20260507003135 11 90 3.2 0.0 0.00 0.00 0.00 10 1002.7
20260507003027 11 90 1.6 0.0 0.00 0.00 0.00 10 1002.6
20260507002918 11 90 3.2 0.0 0.00 0.00 0.00 10 1002.6
20260507002809 11 90 3.2 0.0 0.00 0.00 0.00 10 1002.6
20260507002701 11 45 3.2 0.0 0.00 0.00 0.00 10 1002.4
20260507002552 11 90 3.2 0.0 0.00 0.00 0.00 10 1002.4
20260507002443 11 45 1.6 0.0 0.00 0.00 0.00 10 1002.3
20260507002226 11 90 1.6 0.0 0.00 0.00 0.00 10 1002.3
20260507002117 11 90 1.6 0.0 0.00 0.00 0.00 10 1002.4
20260507002009 11 90 1.6 0.0 0.00 0.00 0.00 10 1002.6
20260507001900 11 90 3.2 0.0 0.00 0.00 0.00 10 1002.8
20260507001643 11 0 1.6 0.0 0.00 0.00 0.00 10 1003.0
20260507001534 11 45 3.2 0.0 0.00 0.00 0.00 10 1003.0
20260507001426 11 90 1.6 0.0 0.00 0.00 0.00 10 1003.1
20260507001317 11 90 1.6 0.0 0.00 0.00 0.00 10 1003.1
20260507001209 11 135 3.2 0.0 0.00 0.00 0.00 10 1003.1
20260507001100 11 90 1.6 0.0 0.00 0.00 0.00 10 1003.1
20260507000843 11 135 1.6 0.0 0.00 0.00 0.00 10 1003.1
20260507000734 11 90 1.6 0.0 0.00 0.00 0.00 10 1003.1
20260507000517 11 45 1.6 0.0 0.00 0.00 0.00 10 1003.1
20260507000408 11 90 1.6 0.0 0.00 0.00 0.00 10 1003.1
20260507000259 11 135 1.6 0.0 0.00 0.00 0.00 10 1003.0
20260507000151 11 90 1.6 0.0 0.00 0.00 0.00 10 1003.1
20260507000042 11 90 1.6 0.0 0.00 0.00 0.00 10 1003.1
20260506235934 11 90 3.2 0.0 0.00 0.00 0.00 10 1003.1
20260506235825 11 90 1.6 0.0 0.00 0.00 0.00 10 1003.1
20260506235716 11 90 1.6 0.0 0.00 0.00 0.00 10 1003.1
20260506235459 11 90 1.6 0.0 0.00 0.00 0.00 10 1002.8
20260506235351 11 135 1.6 0.0 0.00 0.00 0.00 10 1002.6
20260506235242 11 90 1.6 0.0 0.00 0.00 0.00 10 1002.6
20260506235133 11 90 1.6 0.0 0.00 0.00 0.00 10 1002.7
20260506235025 11 90 1.6 0.0 0.00 0.00 0.00 10 1002.6
20260506234916 11 90 3.2 0.0 0.00 0.00 0.00 10 1002.6
20260506234550 11 90 1.6 0.0 0.00 0.00 0.00 10 1002.6
20260506234442 11 135 3.2 0.0 0.00 0.00 0.00 10 1002.6
20260506234333 11 90 3.2 0.0 0.00 0.00 0.00 10 1002.5
20260506234224 11 90 1.6 0.0 0.00 0.00 0.00 10 1002.5
20260506233750 11 180 1.6 0.0 0.00 0.00 0.00 10 1002.5
20260506233641 11 90 3.2 0.0 0.00 0.00 0.00 10 1002.5
20260506233424 11 315 1.6 0.0 0.00 0.00 0.00 10 1002.5
20260506233316 11 135 1.6 0.0 0.00 0.00 0.00 10 1002.4
20260506233207 11 90 1.6 0.0 0.00 0.00 0.00 10 1002.5
20260506233058 11 45 1.6 0.0 0.00 0.00 0.00 10 1002.5
20260506232950 11 45 1.6 0.0 0.00 0.00 0.00 10 1002.4
20260506232841 11 90 3.2 0.0 0.00 0.00 0.00 10 1002.5
20260506232733 11 90 1.6 0.0 0.00 0.00 0.00 10 1002.5
20260506232515 11 90 1.6 0.0 0.00 0.00 0.00 10 1002.6
20260506232407 11 90 1.6 0.0 0.00 0.00 0.00 10 1002.6
20260506232258 11 45 3.2 0.0 0.00 0.00 0.00 10 1002.5
20260506232149 11 90 1.6 0.0 0.00 0.00 0.00 10 1002.6
20260506232041 11 45 1.6 0.0 0.00 0.00 0.00 10 1002.6
20260506231932 11 45 3.2 0.0 0.00 0.00 0.00 10 1002.6
20260506231823 11 45 1.6 0.0 0.00 0.00 0.00 10 1002.6
20260506231715 11 45 1.6 0.0 0.00 0.00 0.00 10 1002.7
20260506231458 11 90 1.6 0.0 0.00 0.00 0.00 10 1002.6
20260506231349 11 135 4.8 0.0 0.00 0.00 0.00 10 1002.7
20260506231240 11 90 4.8 0.0 0.00 0.00 0.00 10 1002.7
20260506231132 11 90 3.2 0.0 0.00 0.00 0.00 10 1002.7
20260506231023 11 90 3.2 0.0 0.00 0.00 0.00 10 1002.7
20260506230806 11 90 1.6 0.0 0.00 0.00 0.00 10 1002.7
20260506230440 11 45 1.6 0.0 0.00 0.00 0.00 10 1002.7
20260506230331 11 45 1.6 0.0 0.00 0.00 0.00 10 1002.7
20260506225857 11 45 1.6 0.0 0.00 0.00 0.00 10 1002.6
20260506225748 11 90 3.2 0.0 0.00 0.00 0.00 10 1002.5
20260506225639 11 90 3.2 0.0 0.00 0.00 0.00 10 1002.5
20260506225422 11 90 1.6 0.0 0.00 0.00 0.00 10 1002.4
20260506225314 11 90 1.6 0.0 0.00 0.00 0.00 10 1002.5
20260506225205 11 45 1.6 0.0 0.00 0.00 0.00 10 1002.5
20260506225056 11 90 4.8 0.0 0.00 0.00 0.00 10 1002.5
20260506224948 11 90 3.2 0.0 0.00 0.00 0.00 10 1002.4
20260506224839 11 90 1.6 0.0 0.00 0.00 0.00 10 1002.4
20260506224730 11 90 1.6 0.0 0.00 0.00 0.00 10 1002.3
20260506224622 11 90 1.6 0.0 0.00 0.00 0.00 10 1002.3
20260506224513 11 90 3.2 0.0 0.00 0.00 0.00 10 1002.3
20260506224404 11 45 1.6 0.0 0.00 0.00 0.00 10 1002.2
20260506224256 11 0 1.6 0.0 0.00 0.00 0.00 10 1002.2
20260506224038 11 45 1.6 0.0 0.00 0.00 0.00 10 1002.1
20260506223821 11 90 1.6 0.0 0.00 0.00 0.00 10 1001.9
20260506223604 11 135 1.6 0.0 0.00 0.00 0.00 10 1001.7
20260506223456 11 90 1.6 0.0 0.00 0.00 0.00 10 1001.5
20260506223347 11 90 1.6 0.0 0.00 0.00 0.00 10 1001.4
20260506222804 11 90 1.6 0.0 0.00 0.00 0.00 10 1001.0
20260506222655 11 90 1.6 0.0 0.00 0.00 0.00 10 1001.0
20260506222329 11 90 1.6 0.0 0.00 0.00 0.00 10 1001.0
20260506222004 11 90 1.6 0.0 0.00 0.00 0.00 10 1001.0
20260506221746 11 90 1.6 0.0 0.00 0.00 0.00 10 1001.4
20260506221638 11 135 3.2 0.0 0.00 0.00 0.00 10 1001.4
20260506221529 11 90 1.6 0.0 0.00 0.00 0.00 10 1001.5
20260506221312 11 90 1.6 0.0 0.00 0.00 0.00 10 1001.5
20260506220838 11 135 1.6 0.0 0.00 0.00 0.00 10 1001.6
20260506220729 11 90 1.6 0.0 0.00 0.00 0.00 10 1001.7
20260506220146 11 90 0.0 0.0 0.00 0.00 0.00 10 1001.5
20260506220038 11 90 0.0 0.0 0.00 0.00 0.00 10 1001.6
20260506215820 11 90 0.0 0.0 0.00 0.00 0.00 10 1001.5
20260506215346 11 90 1.6 0.0 0.00 0.00 0.00 10 1001.4
20260506215128 11 45 1.6 0.0 0.00 0.00 0.00 10 1001.4
20260506214545 11 90 0.0 0.0 0.00 0.00 0.00 10 1001.4
20260506214437 11 90 0.0 0.0 0.00 0.00 0.00 10 1001.3
20260506214328 11 180 0.0 0.0 0.00 0.00 0.00 10 1001.3
20260506214219 11 180 0.0 0.0 0.00 0.00 0.00 10 1001.3
20260506214111 11 90 0.0 0.0 0.00 0.00 0.00 10 1001.2
20260506214002 11 180 0.0 0.0 0.00 0.00 0.00 10 1001.2
20260506213854 11 180 0.0 0.0 0.03 0.00 0.00 10 1001.2
20260506213745 11 135 0.0 0.0 0.03 0.00 0.00 10 1001.2
20260506213311 11 90 0.0 0.0 0.03 0.00 0.00 10 1001.1
20260506212836 11 90 0.0 0.0 0.03 0.00 0.00 10 1001.0
20260506212728 11 180 0.0 0.0 0.03 0.00 0.00 10 1001.0
20260506212511 11 45 0.0 0.0 0.03 0.00 0.00 10 1000.9
20260506212402 11 90 0.0 0.0 0.03 0.00 0.00 10 1000.9
20260506212253 11 135 0.0 0.0 0.03 0.00 0.00 10 1000.8
20260506210801 12 90 1.6 0.0 0.00 0.00 0.00 10 1000.7
20260506210435 12 135 1.6 0.0 0.00 0.00 0.00 10 1000.7
20260506205744 12 90 1.6 0.0 0.00 0.00 0.00 10 1000.5
20260506205418 12 90 1.6 0.0 0.00 0.00 0.00 10 1000.3
20260506205309 12 135 0.0 0.0 0.00 0.00 0.00 10 1000.3
20260506204944 12 45 1.6 0.0 0.00 0.00 0.00 10 1000.2
20260506204835 11 90 1.6 0.0 0.00 0.00 0.00 10 1000.2
20260506204726 11 90 3.2 0.0 0.00 0.00 0.00 10 1000.2
20260506204618 12 90 1.6 0.0 0.00 0.00 0.00 10 1000.2
20260506204401 12 90 1.6 0.0 0.00 0.00 0.00 10 1000.2
20260506204252 11 90 3.2 0.0 0.00 0.00 0.00 10 1000.1
20260506204143 11 90 1.6 0.0 0.00 0.00 0.00 10 1000.1
20260506204034 11 90 3.2 0.0 0.00 0.00 0.00 10 1000.1
20260506203709 12 90 1.6 0.0 0.00 0.00 0.00 10 1000.0
20260506203017 11 135 0.0 0.0 0.00 0.00 0.00 10 999.8
20260506202543 11 135 1.6 0.0 0.00 0.00 0.00 10 999.7
20260506202217 11 90 1.6 0.0 0.00 0.00 0.00 10 999.7
20260506202108 11 135 0.0 0.0 0.00 0.00 0.00 10 999.7
20260506202000 11 90 0.0 0.0 0.00 0.00 0.00 10 999.6
20260506201851 11 270 0.0 0.0 0.00 0.00 0.00 10 999.6
20260506201200 11 90 1.6 0.0 0.00 0.00 0.00 10 999.4
20260506200142 11 90 0.0 0.0 0.00 0.00 0.00 10 999.2
20260506195233 11 90 1.6 0.0 0.00 0.00 0.00 10 998.7
20260506194907 11 90 1.6 0.0 0.00 0.00 0.00 10 998.6
20260506194759 11 90 3.2 0.0 0.00 0.00 0.00 10 998.6
20260506193958 11 135 1.6 0.0 0.00 0.00 0.00 10 998.3
20260506193850 11 135 0.0 0.0 0.00 0.00 0.00 10 998.2
20260506193415 11 180 0.0 0.0 0.00 0.00 0.00 10 998.0
20260506193049 11 135 0.0 0.0 0.00 0.00 0.00 10 997.8
20260506192615 11 90 0.0 0.0 0.00 0.00 0.00 10 998.1
20260506192358 11 45 0.0 0.0 0.00 0.00 0.00 10 998.0
20260506192249 11 45 0.0 0.0 0.00 0.00 0.00 10 998.0
20260506192032 11 135 1.6 0.0 0.00 0.00 0.00 10 997.7
20260506191449 11 90 1.6 0.0 0.03 0.00 0.00 10 996.8
20260506191341 11 90 1.6 0.0 0.03 0.00 0.00 10 996.6
20260506191232 11 90 1.6 0.0 0.03 0.00 0.00 10 996.6
20260506191123 11 135 1.6 0.0 0.03 0.00 0.00 10 996.5
20260506191015 11 90 1.6 0.0 0.03 0.00 0.00 10 996.4
20260506190906 11 90 1.6 0.0 0.03 0.00 0.00 10 996.4
20260506190757 11 90 1.6 0.0 0.03 0.00 0.00 10 996.3
20260506190649 11 90 1.6 0.0 0.03 0.00 0.00 10 996.3
20260506190431 11 45 1.6 0.0 0.03 0.00 0.00 10 996.2
20260506190323 11 90 1.6 0.0 0.03 0.00 0.00 10 996.1
20260506190214 11 135 0.0 0.0 0.03 0.00 0.00 10 996.0
20260506190106 11 135 0.0 0.0 0.03 0.00 0.00 10 995.9
20260506185848 11 180 0.0 0.0 0.03 0.00 0.00 10 995.6
20260506185523 11 135 0.0 0.0 0.03 0.00 0.00 10 995.1
20260506184831 11 90 1.6 0.0 0.03 0.00 0.00 10 995.7
20260506184614 11 90 1.6 0.0 0.03 0.00 0.00 10 996.0
20260506184505 11 90 1.6 0.0 0.03 0.00 0.00 10 996.0
20260506184357 11 90 1.6 0.0 0.03 0.00 0.00 10 996.0
20260506184030 11 90 0.0 0.0 0.03 0.00 0.00 10 996.2
20260506183813 11 45 0.0 0.0 0.03 0.00 0.00 10 996.1
20260506183555 11 90 1.6 0.0 0.03 0.00 0.00 10 996.1
20260506183120 12 135 1.6 0.0 0.03 0.00 0.00 10 995.9
20260506183011 12 90 1.6 0.0 0.03 0.00 0.00 10 995.8
20260506182903 12 90 3.2 0.0 0.03 0.00 0.00 10 995.9
20260506182536 12 90 0.0 0.0 0.03 0.00 0.00 10 995.7
20260506182319 12 45 1.6 0.0 0.03 0.00 0.00 10 995.7
20260506182210 12 90 1.6 0.0 0.03 0.00 0.00 10 995.8
20260506182101 12 90 1.6 0.0 0.03 0.00 0.00 10 995.8
20260506181626 12 45 1.6 0.0 0.03 0.00 0.00 10 995.8
20260506181151 12 135 1.6 0.0 0.00 0.00 0.00 10 995.9
20260506181042 12 135 1.6 0.0 0.00 0.00 0.00 10 996.0
20260506180459 12 180 0.0 0.0 0.05 0.00 0.00 10 996.1
20260506175806 12 45 0.0 0.0 0.05 0.00 0.00 10 996.3
20260506174529 12 225 0.0 0.0 0.05 0.00 0.00 10 996.9
20260506174312 12 225 1.6 0.0 0.05 0.00 0.00 10 997.0
20260506173945 12 270 1.6 0.0 0.03 0.00 0.00 10 997.0
20260506173837 12 315 1.6 0.0 0.03 0.00 0.00 10 996.9
20260506173510 12 0 1.6 0.0 0.03 0.00 0.00 10 996.9
20260506173401 12 0 1.6 0.0 0.03 0.00 0.00 10 996.9
20260506173035 12 45 1.6 0.0 0.03 0.00 0.00 10 996.9
20260506172926 12 0 1.6 0.0 0.03 0.00 0.00 10 996.9
20260506172817 12 0 1.6 0.0 0.03 0.00 0.00 10 997.0
20260506172600 12 0 1.6 0.0 0.03 0.00 0.00 10 997.5
20260506172451 12 315 1.6 0.0 0.03 0.00 0.00 10 997.6
20260506172233 12 315 1.6 0.0 0.03 0.00 0.00 10 997.8
20260506172124 12 315 4.8 0.0 0.03 0.00 0.00 10 997.8
20260506172015 12 315 3.2 0.0 0.03 0.00 0.00 10 997.9
20260506171906 12 270 4.8 0.0 0.03 0.00 0.00 10 998.0
20260506171758 12 45 6.4 0.0 0.03 0.00 0.00 10 998.1
20260506171649 12 45 4.8 0.0 0.00 0.00 0.00 10 998.1
20260506171540 12 315 1.6 0.0 0.00 0.00 0.00 10 998.1
20260506171104 12 225 1.6 0.0 0.00 0.00 0.00 10 997.7
20260506170955 12 225 3.2 0.0 0.00 0.00 0.00 10 997.7
20260506170847 12 180 3.2 0.0 0.00 0.00 0.00 10 997.6
20260506170738 12 180 1.6 0.0 0.00 0.00 0.00 10 997.6
20260506170629 12 180 1.6 0.0 0.00 0.00 0.00 10 997.6
20260506170520 12 180 3.2 0.0 0.00 0.00 0.00 10 997.5
20260506170411 12 180 1.6 0.0 0.00 0.00 0.00 10 997.5
20260506170302 12 180 3.2 0.0 0.00 0.00 0.00 10 997.5
20260506170154 12 180 4.8 0.0 0.00 0.00 0.00 10 997.5
20260506170045 12 180 3.2 0.0 0.00 0.00 0.00 10 997.4
20260506165937 12 180 4.8 0.0 0.03 0.00 0.00 10 997.4
20260506165827 12 180 3.2 0.0 0.00 0.00 0.00 10 997.3
20260506165718 12 180 4.8 0.0 0.00 0.00 0.00 10 997.4
20260506165609 12 135 4.8 0.0 0.00 0.00 0.00 10 997.4
20260506165501 12 180 3.2 0.0 0.00 0.00 0.00 10 997.3
20260506165351 12 180 1.6 0.0 0.00 0.00 0.00 10 997.3
20260506165243 12 180 1.6 0.0 0.00 0.00 0.00 10 997.2
20260506165134 12 180 1.6 0.0 0.00 0.00 0.00 10 997.3
20260506165025 12 180 1.6 0.0 0.00 0.00 0.00 10 997.2
20260506164916 13 180 1.6 0.0 0.00 0.00 0.00 10 997.2
20260506164808 13 180 1.6 0.0 0.00 0.00 0.00 10 997.2
20260506164550 13 270 1.6 0.0 0.00 0.00 0.00 10 997.2
20260506164332 13 180 1.6 0.0 0.00 0.00 0.00 10 997.2
20260506164223 13 180 1.6 0.0 0.00 0.00 0.00 10 997.2
20260506164115 13 135 1.6 0.0 0.00 0.00 0.00 10 997.1
20260506164006 13 90 1.6 0.0 0.00 0.00 0.00 10 997.1
20260506163639 13 180 1.6 0.0 0.00 0.00 0.00 10 997.2
20260506163531 13 135 1.6 0.0 0.00 0.00 0.00 10 997.2
20260506162838 13 135 1.6 0.0 0.00 0.00 0.00 10 997.3
20260506162620 13 90 1.6 0.0 0.00 0.00 0.00 10 997.3
20260506162512 13 90 1.6 0.0 0.00 0.00 0.00 10 997.4
20260506162145 13 135 1.6 0.0 0.00 0.00 0.00 10 997.4
20260506161453 13 90 1.6 0.0 0.00 0.00 0.00 10 997.4
20260506161344 13 90 1.6 0.0 0.00 0.00 0.00 10 997.4
20260506160800 13 90 1.6 0.0 0.00 0.00 0.00 10 997.5
20260506160651 13 90 1.6 0.0 0.00 0.00 0.00 10 997.5
20260506160324 14 90 1.6 0.0 0.00 0.00 0.00 10 997.5
20260506155958 14 135 1.6 0.0 0.00 0.00 0.00 10 997.5
20260506155849 14 135 1.6 0.0 0.00 0.00 0.00 10 997.6
20260506155632 14 0 1.6 0.0 0.00 0.00 0.00 10 997.6
20260506155523 14 90 1.6 0.0 0.00 0.00 0.00 10 997.7
20260506155156 15 90 0.0 0.0 0.00 0.00 0.00 10 997.7
20260506155048 15 90 0.0 0.0 0.00 0.00 0.00 10 997.8
20260506154612 15 45 0.0 0.0 0.03 0.00 0.00 10 998.5
20260506154137 14 135 1.6 0.0 0.03 0.00 0.00 10 999.3
20260506153553 15 180 1.6 0.0 0.00 0.00 0.00 10 1001.3
20260506152901 15 135 1.6 0.0 0.00 0.00 0.00 10 1004.0
20260506152752 15 135 3.2 0.0 0.00 0.00 0.00 10 1004.5
20260506152643 15 45 1.6 0.0 0.00 0.00 0.00 10 1004.8
20260506152317 16 180 1.6 0.0 0.00 0.00 0.00 10 1005.4
20260506152208 16 135 1.6 0.0 0.00 0.00 0.00 10 1005.5
20260506152059 17 180 3.2 0.0 0.00 0.00 0.00 10 1005.7
20260506151950 17 180 1.6 0.0 0.00 0.00 0.00 10 1005.9
20260506151842 17 135 1.6 0.0 0.00 0.00 0.00 10 1005.9
20260506150822 17 180 0.0 0.0 0.00 0.00 0.00 10 1005.6
20260506150020 17 225 0.0 0.0 0.00 0.00 0.00 10 1005.4
20260506145911 17 45 0.0 0.0 0.00 0.00 0.00 10 1005.4
20260506145802 17 45 0.0 0.0 0.00 0.00 0.00 10 1005.4
20260506145653 17 45 0.0 0.0 0.00 0.00 0.00 10 1005.3
20260506145545 16 45 0.0 0.0 0.00 0.00 0.00 10 1005.3
20260506145000 16 45 1.6 0.0 0.00 0.00 0.00 10 1005.8
20260506144851 16 45 3.2 0.0 0.00 0.00 0.00 10 1005.9
20260506144742 16 315 3.2 0.0 0.00 0.00 0.00 10 1006.0
20260506144633 16 0 4.8 0.0 0.00 0.00 0.00 10 1006.1
20260506144525 16 315 3.2 0.0 0.00 0.00 0.00 10 1006.3
20260506144416 16 315 3.2 0.0 0.00 0.00 0.00 10 1006.4
20260506144307 16 315 1.6 0.0 0.00 0.00 0.00 10 1006.5
20260506144158 16 270 1.6 0.0 0.00 0.00 0.00 10 1006.7
20260506143832 16 270 3.2 0.0 0.00 0.00 0.00 10 1007.3
20260506143723 16 315 9.7 0.0 0.00 0.00 0.00 10 1007.6
20260506143614 16 315 1.6 0.0 0.00 0.00 0.00 10 1007.9
20260506143505 16 270 3.2 0.0 0.00 0.00 0.00 10 1008.3
20260506143357 17 270 3.2 0.0 0.00 0.00 0.00 10 1008.6
20260506143248 17 45 1.6 0.0 0.00 0.00 0.00 10 1008.9
20260506143139 17 270 1.6 0.0 0.00 0.00 0.00 10 1009.1
20260506142921 18 315 1.6 0.0 0.00 0.00 0.00 10 1009.4
20260506142813 18 270 1.6 0.0 0.00 0.00 0.00 10 1009.4
20260506142704 18 225 1.6 0.0 0.00 0.00 0.00 10 1009.5
20260506142446 18 315 1.6 0.0 0.00 0.00 0.00 10 1009.7
20260506142120 18 270 1.6 0.0 0.00 0.00 0.00 10 1009.6
20260506142011 18 315 1.6 0.0 0.00 0.00 0.00 10 1009.7
20260506141902 18 270 1.6 0.0 0.00 0.00 0.00 10 1009.6
20260506141427 18 315 1.6 0.0 0.00 0.00 0.00 10 1009.6
20260506141209 18 315 1.6 0.0 0.00 0.00 0.00 10 1009.8
20260506141100 18 45 1.6 0.0 0.00 0.00 0.00 10 1009.9
20260506140952 18 315 3.2 0.0 0.00 0.00 0.00 10 1010.2
20260506140517 20 0 1.6 0.0 0.00 0.00 0.00 10 1010.1
20260506140259 20 270 1.6 0.0 0.00 0.00 0.00 10 1009.7
20260506140150 18 270 1.6 0.0 0.00 0.00 0.00 10 1010.1
20260506135933 19 225 1.6 0.0 0.00 0.00 0.00 10 1010.2
20260506135715 20 225 1.6 0.0 0.00 0.00 0.00 10 1010.3
20260506135606 20 270 1.6 0.0 0.00 0.00 0.00 10 1010.3
20260506135349 19 0 1.6 0.0 0.00 0.00 0.00 10 1010.4
20260506135240 19 315 1.6 0.0 0.00 0.00 0.00 10 1010.5
20260506135023 20 45 1.6 0.0 0.00 0.00 0.00 10 1010.6
20260506134914 20 315 1.6 0.0 0.00 0.00 0.00 10 1010.8
20260506134805 20 0 3.2 0.0 0.00 0.00 0.00 10 1011.1
20260506134547 21 45 1.6 0.0 0.00 0.00 0.00 10 1011.0
20260506134438 22 225 1.6 0.0 0.00 0.00 0.00 10 1011.2
20260506134112 22 270 1.6 0.0 0.00 0.00 0.00 10 1011.1
20260506134003 22 270 0.0 0.0 0.00 0.00 0.00 10 1010.6
20260506133855 21 0 1.6 0.0 0.00 0.00 0.00 10 1010.5
20260506133637 20 90 3.2 0.0 0.00 0.00 0.00 10 1009.9
20260506133528 19 45 3.2 0.0 0.00 0.00 0.00 10 1009.9
20260506133311 18 0 1.6 0.0 0.00 0.00 0.00 10 1010.4
20260506132944 18 0 1.6 0.0 0.00 0.00 0.00 10 1010.4
20260506132509 20 225 3.2 0.0 0.00 0.00 0.00 10 1010.8
20260506132400 20 270 1.6 0.0 0.00 0.00 0.00 10 1010.8
20260506132252 21 45 1.6 0.0 0.00 0.00 0.00 10 1010.8
20260506132143 21 270 1.6 0.0 0.00 0.00 0.00 10 1010.8
20260506132034 22 0 1.6 0.0 0.00 0.00 0.00 10 1010.3
20260506131925 21 315 1.6 0.0 0.00 0.00 0.00 10 1010.1
20260506131816 21 0 1.6 0.0 0.00 0.00 0.00 10 1009.8
20260506131708 21 315 3.2 0.0 0.00 0.00 0.00 10 1009.4
20260506131450 20 315 3.2 0.0 0.00 0.00 0.00 10 1009.1
20260506131341 20 0 1.6 0.0 0.00 0.00 0.00 10 1009.2
20260506131232 20 315 1.6 0.0 0.00 0.00 0.00 10 1009.0
20260506131124 19 0 3.2 0.0 0.00 0.00 0.00 10 1009.1
20260506130906 19 315 1.6 0.0 0.00 0.00 0.00 10 1008.8
20260506130757 18 315 4.8 0.0 0.00 0.00 0.00 10 1009.1
20260506130649 18 0 1.6 0.0 0.00 0.00 0.00 10 1009.1
20260506130213 18 0 1.6 0.0 0.00 0.00 0.00 10 1009.4
20260506125956 18 315 1.6 0.0 0.00 0.00 0.00 10 1009.8
20260506125848 18 315 1.6 0.0 0.00 0.00 0.00 10 1010.0
20260506125738 18 315 1.6 0.0 0.00 0.00 0.00 10 1010.1
20260506125629 18 270 1.6 0.0 0.00 0.00 0.00 10 1010.2
20260506125521 18 315 1.6 0.0 0.00 0.00 0.00 10 1010.3
20260506125412 20 0 1.6 0.0 0.00 0.00 0.00 10 1010.1
20260506124828 18 315 1.6 0.0 0.00 0.00 0.00 10 1009.5
20260506124719 18 315 1.6 0.0 0.00 0.00 0.00 10 1009.7
20260506124611 18 315 1.6 0.0 0.00 0.00 0.00 10 1009.7
20260506124353 18 315 3.2 0.0 0.00 0.00 0.00 10 1010.1
20260506124244 18 315 3.2 0.0 0.00 0.00 0.00 10 1010.4
20260506124136 19 315 1.6 0.0 0.00 0.00 0.00 10 1010.3
20260506124027 20 0 3.2 0.0 0.00 0.00 0.00 10 1010.0
20260506123809 19 315 3.2 0.0 0.00 0.00 0.00 10 1010.2
20260506123700 19 270 3.2 0.0 0.00 0.00 0.00 10 1010.3
20260506123443 18 0 3.2 0.0 0.00 0.00 0.00 10 1010.4
20260506123334 19 270 3.2 0.0 0.00 0.00 0.00 10 1010.4
20260506123225 20 315 1.6 0.0 0.00 0.00 0.00 10 1010.3
20260506123116 21 315 1.6 0.0 0.00 0.00 0.00 10 1010.1
20260506123008 20 315 1.6 0.0 0.00 0.00 0.00 10 1010.4
20260506122859 20 315 4.8 0.0 0.00 0.00 0.00 10 1010.5
20260506122750 20 270 3.2 0.0 0.00 0.00 0.00 10 1010.9
20260506122315 20 225 3.2 0.0 0.00 0.00 0.00 10 1011.2
20260506122206 20 90 1.6 0.0 0.00 0.00 0.00 10 1011.2
20260506121948 19 225 1.6 0.0 0.00 0.00 0.00 10 1011.3
20260506121839 19 180 1.6 0.0 0.00 0.00 0.00 10 1011.2
20260506121513 20 180 1.6 0.0 0.00 0.00 0.00 10 1010.4
20260506121404 20 225 1.6 0.0 0.00 0.00 0.00 10 1010.2
20260506121255 20 180 3.2 0.0 0.00 0.00 0.00 10 1009.9
20260506121147 20 270 3.2 0.0 0.00 0.00 0.00 10 1009.6
20260506121038 20 180 1.6 0.0 0.00 0.00 0.00 10 1008.9
20260506120929 20 225 1.6 0.0 0.00 0.00 0.00 10 1008.9
20260506120820 19 270 1.6 0.0 0.00 0.00 0.00 10 1008.9
20260506120711 18 225 1.6 0.0 0.00 0.00 0.00 10 1008.8
20260506120603 18 270 1.6 0.0 0.00 0.00 0.00 10 1009.0
20260506120454 17 270 3.2 0.0 0.00 0.00 0.00 10 1009.0
20260506120345 17 225 3.2 0.0 0.00 0.00 0.00 10 1009.0
20260506120236 17 270 3.2 0.0 0.00 0.00 0.00 10 1009.1
20260506120127 17 315 1.6 0.0 0.00 0.00 0.00 10 1008.9
20260506120019 17 225 1.6 0.0 0.00 0.00 0.00 10 1009.0
20260506115801 18 270 3.2 0.0 0.00 0.00 0.00 10 1009.3
20260506115652 18 225 3.2 0.0 0.00 0.00 0.00 10 1009.4
20260506115543 18 315 1.6 0.0 0.00 0.00 0.00 10 1009.5
20260506115435 18 225 3.2 0.0 0.00 0.00 0.00 10 1009.6
20260506115326 18 270 6.4 0.0 0.00 0.00 0.00 10 1010.0
20260506115217 18 315 1.6 0.0 0.00 0.00 0.00 10 1009.9
20260506115108 19 180 1.6 0.0 0.00 0.00 0.00 10 1009.7
20260506114633 19 270 3.2 0.0 0.00 0.00 0.00 10 1008.8
20260506114524 19 225 4.8 0.0 0.00 0.00 0.00 10 1008.7
20260506114416 19 225 1.6 0.0 0.00 0.00 0.00 10 1008.5
20260506114158 18 270 3.2 0.0 0.00 0.00 0.00 10 1008.5
20260506114049 18 270 6.4 0.0 0.00 0.00 0.00 10 1008.4
20260506113940 18 270 3.2 0.0 0.00 0.00 0.00 10 1008.0
20260506113832 18 315 3.2 0.0 0.00 0.00 0.00 10 1008.0
20260506113723 18 270 1.6 0.0 0.00 0.00 0.00 10 1007.9
20260506113614 18 225 3.2 0.0 0.00 0.00 0.00 10 1007.6
20260506113505 19 225 1.6 0.0 0.00 0.00 0.00 10 1006.9
20260506113356 19 225 3.2 0.0 0.00 0.00 0.00 10 1006.7
20260506113248 19 315 3.2 0.0 0.00 0.00 0.00 10 1006.8
20260506113139 18 315 1.6 0.0 0.00 0.00 0.00 10 1006.9
20260506113030 18 270 4.8 0.0 0.00 0.00 0.00 10 1007.1
20260506112812 17 270 3.2 0.0 0.00 0.00 0.00 10 1007.6
20260506112704 17 225 1.6 0.0 0.00 0.00 0.00 10 1007.7
20260506112555 17 225 3.2 0.0 0.00 0.00 0.00 10 1008.0
20260506112337 18 225 1.6 0.0 0.00 0.00 0.00 10 1008.1
20260506112228 18 180 4.8 0.0 0.00 0.00 0.00 10 1008.1
20260506112120 18 270 6.4 0.0 0.00 0.00 0.00 10 1008.5
20260506112011 19 225 4.8 0.0 0.00 0.00 0.00 10 1260.8
20260506111902 21 315 1.6 0.0 0.00 0.00 0.00 10 1007.7
20260506111644 21 180 1.6 0.0 0.00 0.00 0.00 10 1006.8
20260506111536 20 180 3.2 0.0 0.00 0.00 0.00 10 1006.4
20260506111318 19 270 1.6 0.0 0.00 0.00 0.00 10 1006.6
20260506111100 20 270 3.2 0.0 0.00 0.00 0.00 10 1006.0
20260506110952 20 270 3.2 0.0 0.00 0.00 0.00 10 1005.7
20260506110517 18 225 3.2 0.0 0.00 0.00 0.00 10 1005.2
20260506110408 18 270 1.6 0.0 0.00 0.00 0.00 10 1005.6
20260506110150 18 270 3.2 0.0 0.00 0.00 0.00 10 1005.4
20260506105933 18 270 3.2 0.0 0.00 0.00 0.00 10 1004.9
20260506105824 18 270 4.8 0.0 0.00 0.00 0.00 10 1004.8
20260506105716 18 225 3.2 0.0 0.00 0.00 0.00 10 1004.6
20260506105606 18 225 1.6 0.0 0.00 0.00 0.00 10 1004.3
20260506105457 18 45 1.6 0.0 0.00 0.00 0.00 10 1004.1
20260506105349 17 45 4.8 0.0 0.00 0.00 0.00 10 1004.2
20260506105240 17 45 3.2 0.0 0.00 0.00 0.00 10 1003.9
20260506105131 17 270 4.8 0.0 0.00 0.00 0.00 10 1003.7
20260506105022 18 270 3.2 0.0 0.00 0.00 0.00 10 1003.2
20260506104914 18 270 1.6 0.0 0.00 0.00 0.00 10 1003.0
20260506104656 18 180 3.2 0.0 0.00 0.00 0.00 10 1002.3
20260506104112 17 180 1.6 0.0 0.00 0.00 0.00 10 1001.0
20260506104004 17 45 3.2 0.0 0.00 0.00 0.00 10 1001.2
20260506103855 16 225 1.6 0.0 0.00 0.00 0.00 10 1001.4
20260506103746 16 270 1.6 0.0 0.00 0.00 0.00 10 1001.5
20260506103637 16 225 1.6 0.0 0.00 0.00 0.00 10 1001.9
20260506103311 16 270 1.6 0.0 0.00 0.00 0.00 10 1002.4
20260506103202 16 270 1.6 0.0 0.00 0.00 0.00 10 1002.5
20260506102944 17 315 1.6 0.0 0.00 0.00 0.00 10 1002.0
20260506102618 18 180 1.6 0.0 0.00 0.00 0.00 10 1001.0
20260506102509 18 180 1.6 0.0 0.00 0.00 0.00 10 1000.9
20260506102400 18 180 1.6 0.0 0.00 0.00 0.00 10 1000.6
20260506102252 18 225 1.6 0.0 0.00 0.00 0.00 10 1000.3
20260506102035 18 225 1.6 0.0 0.00 0.00 0.00 10 999.0
20260506101817 17 270 1.6 0.0 0.00 0.00 0.00 10 999.6
20260506101559 16 270 1.6 0.0 0.00 0.00 0.00 10 1000.6
20260506100906 16 225 1.6 0.0 0.00 0.00 0.00 10 1001.2
20260506100540 16 180 1.6 0.0 0.00 0.00 0.00 10 1001.5
20260506100323 17 225 3.2 0.0 0.00 0.00 0.00 10 1001.5
20260506094937 17 225 1.6 0.0 0.00 0.00 0.00 10 1000.5
20260506094829 17 180 3.2 0.0 0.00 0.00 0.00 10 1000.2
20260506094720 17 180 1.6 0.0 0.00 0.00 0.00 10 1000.2
20260506094611 17 135 1.6 0.0 0.00 0.00 0.00 10 1000.2
20260506094136 17 315 1.6 0.0 0.00 0.00 0.00 10 999.8
20260506094027 16 315 1.6 0.0 0.00 0.00 0.00 10 1000.0